QPF
0.00 0.00 0.00 0.00 0.00 0.00 0.00 0.00 0.00 0.00 0.00 0.00 0.00 0.00 0.02 0.02 0.01 0.00 0.00 0.00 0.00 0.00 0.00 0.00 0.00 0.00 0.00 0.00 0.00 0.00 0.00 0.00 0.00 0.00 0.00 0.00 0.00 0.00
0.00 0.00 0.00 0.00 0.00 0.00 0.00 0.00 0.00 0.00 0.00 0.00 0.00 0.00 0.01 0.00 0.00 0.00 0.00 0.00 0.00 0.00 0.00 0.00 0.00 0.00 0.00 0.00 0.00 0.00 0.00 0.00 0.00 0.00 0.00 0.00 0.00 0.00
0.00 0.00 0.00 0.00 0.00 0.00 0.00 0.00 0.00 0.00 0.00 0.00 0.00 0.00 0.00 0.00 0.00 0.00 0.00 0.00 0.00 0.00 0.00 0.00 0.00 0.00 0.00 0.00 0.00 0.00 0.00 0.00 0.00 0.00 0.00 0.00 0.00 0.00
0.00 0.01 0.00 0.00 0.00 0.00 0.00 0.00 0.00 0.00 0.00 0.00 0.00 0.00 0.00 0.00 0.00 0.00 0.00 0.00 0.00 0.00 0.00 0.00 0.00 0.00 0.00 0.00 0.00 0.00 0.00 0.00 0.00 0.00 0.00 0.00 0.00 0.00
0.00 0.01 0.01 0.00 0.00 0.00 0.00 0.00 0.00 0.00 0.00 0.00 0.00 0.00 0.00 0.00 0.00 0.00 0.00 0.00 0.00 0.00 0.00 0.00 0.00 0.00 0.00 0.00 0.00 0.00 0.00 0.00 0.00 0.00 0.00 0.00 0.00 0.00
0.01 0.00 0.01 0.02 0.02 0.02 0.00 0.00 0.00 0.00 0.00 0.00 0.00 0.00 0.00 0.00 0.00 0.00 0.00 0.00 0.00 0.00 0.00 0.00 0.00 0.00 0.00 0.00 0.00 0.00 0.00 0.00 0.00 0.00 0.00 0.00 0.00 0.00
0.01 0.02 0.03 0.04 0.03 0.04 0.03 0.01 0.00 0.00 0.00 0.00 0.00 0.00 0.00 0.00 0.00 0.00 0.00 0.00 0.00 0.00 0.00 0.00 0.00 0.00 0.00 0.00 0.00 0.00 0.00 0.00 0.00 0.00 0.00 0.00 0.00 0.00
0.03 0.03 0.02 0.01 0.01 0.01 0.01 0.01 0.01 0.01 0.00 0.00 0.00 0.00 0.00 0.00 0.00 0.00 0.00 0.00 0.00 0.00 0.00 0.00 0.00 0.00 0.00 0.00 0.00 0.00 0.00 0.00 0.00 0.00 0.00 0.00 0.00 0.00
0.00 0.00 0.00 0.00 0.00 0.00 0.01 0.02 0.00 0.00 0.01 0.00 0.00 0.00 0.00 0.00 0.00 0.00 0.00 0.00 0.00 0.00 0.00 0.00 0.00 0.00 0.00 0.00 0.00 0.00 0.00 0.00 0.00 0.00 0.00 0.00 0.00 0.00
0.01 0.00 0.00 0.00 0.00 0.01 0.01 0.00 0.00 0.00 0.00 0.00 0.00 0.00 0.00 0.00 0.00 0.00 0.00 0.00 0.00 0.00 0.00 0.00 0.00 0.00 0.00 0.00 0.00 0.00 0.00 0.00 0.00 0.00 0.00 0.00 0.00 0.00
0.07 0.05 0.01 0.00 0.02 0.02 0.01 0.00 0.00 0.00 0.00 0.00 0.00 0.00 0.00 0.00 0.00 0.00 0.00 0.00 0.00 0.00 0.00 0.00 0.00 0.00 0.00 0.00 0.00 0.00 0.00 0.00 0.00 0.00 0.00 0.00 0.00 0.00
0.07 0.09 0.04 0.00 0.00 0.01 0.01 0.00 0.00 0.00 0.00 0.00 0.00 0.00 0.00 0.00 0.00 0.00 0.00 0.00 0.00 0.00 0.00 0.00 0.00 0.00 0.00 0.00 0.00 0.00 0.00 0.00 0.00 0.00 0.00 0.00 0.00 0.00
0.06 0.12 0.06 0.09 0.09 0.07 0.03 0.01 0.01 0.00 0.00 0.00 0.00 0.00 0.00 0.00 0.00 0.00 0.00 0.00 0.00 0.00 0.00 0.00 0.00 0.00 0.00 0.00 0.00 0.00 0.00 0.00 0.00 0.00 0.00 0.00 0.00 0.00
0.01 0.02 0.01 0.06 0.11 0.09 0.09 0.11 0.09 0.03 0.01 0.00 0.00 0.00 0.00 0.00 0.00 0.00 0.00 0.00 0.00 0.00 0.00 0.00 0.00 0.00 0.00 0.00 0.00 0.00 0.00 0.00 0.00 0.00 0.00 0.00 0.00 0.00
0.00 0.00 0.00 0.00 0.00 0.01 0.01 0.04 0.04 0.02 0.01 0.00 0.00 0.00 0.00 0.00 0.00 0.00 0.00 0.00 0.00 0.00 0.00 0.00 0.00 0.00 0.00 0.00 0.00 0.00 0.00 0.00 0.00 0.00 0.00 0.00 0.00 0.00
0.00 0.00 0.00 0.00 0.00 0.00 0.00 0.00 0.00 0.00 0.00 0.00 0.00 0.00 0.00 0.00 0.00 0.04 0.00 0.02 0.00 0.00 0.00 0.00 0.00 0.00 0.00 0.00 0.00 0.00 0.00 0.00 0.00 0.00 0.00 0.00 0.00 0.00
0.00 0.00 0.00 0.00 0.00 0.00 0.00 0.00 0.00 0.00 0.00 0.00 0.00 0.00 0.00 0.00 0.00 0.01 0.00 0.00 0.00 0.00 0.00 0.00 0.00 0.00 0.00 0.00 0.00 0.00 0.00 0.00 0.00 0.00 0.00 0.00 0.00 0.00
0.00 0.00 0.00 0.00 0.00 0.00 0.00 0.00 0.00 0.00 0.00 0.00 0.00 0.00 0.00 0.00 0.00 0.00 0.00 0.00 0.00 0.00 0.00 0.01 0.01 0.00 0.00 0.00 0.00 0.00 0.00 0.00 0.00 0.00 0.00 0.00 0.00 0.00
0.00 0.00 0.00 0.00 0.00 0.00 0.00 0.00 0.00 0.00 0.00 0.00 0.00 0.00 0.00 0.00 0.00 0.01 0.01 0.01 0.00 0.01 0.01 0.02 0.02 0.01 0.00 0.00 0.00 0.00 0.00 0.00 0.00 0.00 0.00 0.00 0.00 0.00
0.00 0.00 0.00 0.00 0.00 0.00 0.00 0.00 0.00 0.00 0.01 0.01 0.01 0.01 0.01 0.01 0.01 0.01 0.01 0.01 0.00 0.00 0.00 0.02 0.02 0.04 0.02 0.00 0.00 0.01 0.02 0.01 0.02 0.00 0.00 0.00 0.00 0.02
0.00 0.00 0.00 0.00 0.00 0.00 0.00 0.00 0.01 0.01 0.00 0.00 0.00 0.00 0.00 0.01 0.01 0.01 0.01 0.00 0.00 0.00 0.00 0.00 0.00 0.00 0.03 0.04 0.00 0.00 0.02 0.07 0.04 0.02 0.02 0.01 0.01 0.00
0.00 0.00 0.00 0.00 0.00 0.00 0.00 0.00 0.00 0.00 0.00 0.00 0.00 0.00 0.00 0.00 0.00 0.00 0.00 0.00 0.00 0.00 0.00 0.00 0.00 0.01 0.03 0.08 0.01 0.00 0.00 0.04 0.10 0.10 0.18 0.19 0.16 0.06
0.00 0.00 0.00 0.00 0.00 0.00 0.00 0.01 0.01 0.00 0.00 0.00 0.00 0.00 0.00 0.00 0.00 0.00 0.00 0.00 0.01 0.01 0.02 0.01 0.01 0.05 0.07 0.11 0.11 0.07 0.06 0.06 0.10 0.10 0.15 0.19 0.12 0.08
MSLP
1022.61 1022.73 1022.78 1022.71 1022.68 1022.63 1022.61 1022.62 1022.79 1022.96 1022.40 1021.37 1020.96 1020.29 1020.29 1019.81 1019.49 1019.15 1018.82 1018.24 1018.02 1017.80 1017.60 1017.22 1016.95 1016.98 1016.92 1016.99 1017.19 1017.33 1017.38 1017.52 1017.63 1017.55 1017.56 1017.33 1017.27 1017.43
1022.58 1022.64 1022.69 1022.69 1022.62 1022.56 1022.53 1022.49 1022.47 1022.67 1022.67 1021.86 1021.16 1020.63 1020.10 1019.80 1019.37 1018.99 1018.61 1018.21 1017.93 1017.65 1017.42 1017.17 1016.94 1016.82 1016.80 1016.71 1016.81 1017.03 1017.15 1017.35 1017.48 1017.43 1017.43 1017.47 1017.10 1017.41
1022.38 1022.42 1022.48 1022.55 1022.54 1022.44 1022.40 1022.34 1022.33 1022.35 1022.53 1021.94 1021.49 1020.77 1020.39 1020.02 1019.36 1018.89 1018.69 1018.24 1017.90 1017.64 1017.53 1017.34 1017.17 1017.02 1016.89 1016.75 1016.58 1016.70 1016.82 1017.05 1017.26 1017.20 1017.32 1017.42 1017.17 1017.20
1022.03 1022.25 1022.27 1022.30 1022.28 1022.18 1022.19 1022.20 1022.15 1022.07 1022.10 1022.05 1021.54 1021.07 1020.59 1019.87 1019.53 1019.25 1018.64 1018.28 1018.04 1017.59 1017.40 1017.29 1017.18 1016.96 1016.80 1016.55 1016.40 1016.39 1016.54 1016.69 1016.87 1016.98 1017.23 1017.22 1017.26 1017.10
1021.73 1021.71 1021.71 1022.04 1022.12 1022.01 1021.96 1021.95 1021.89 1021.88 1021.90 1021.94 1021.72 1021.14 1020.59 1020.08 1019.60 1019.21 1018.79 1018.36 1017.91 1017.60 1017.16 1017.06 1016.90 1016.66 1016.47 1016.30 1016.09 1015.93 1016.11 1016.22 1016.46 1016.75 1017.00 1017.02 1017.11 1016.90
1021.41 1021.40 1021.24 1021.30 1021.43 1021.48 1021.54 1021.47 1021.53 1021.72 1021.74 1021.69 1021.57 1021.19 1020.78 1020.20 1019.93 1019.65 1019.12 1018.61 1018.01 1017.35 1017.08 1016.98 1016.67 1016.28 1016.05 1015.72 1015.59 1015.43 1015.40 1015.62 1015.92 1016.34 1016.56 1016.60 1016.76 1016.64
1020.94 1020.91 1020.86 1020.57 1020.48 1020.77 1021.01 1020.86 1021.04 1021.26 1021.22 1021.30 1021.18 1020.99 1020.57 1020.24 1020.01 1019.58 1019.43 1018.94 1018.19 1017.78 1017.44 1017.04 1016.58 1016.08 1015.51 1015.32 1015.07 1014.85 1014.73 1014.81 1015.41 1015.72 1016.05 1016.30 1016.39 1016.42
1020.62 1020.47 1020.43 1020.33 1020.50 1020.16 1020.23 1020.14 1020.37 1020.57 1020.56 1020.73 1020.63 1020.62 1020.10 1019.85 1019.53 1019.49 1019.28 1019.20 1018.76 1017.78 1017.59 1016.76 1016.37 1015.93 1015.39 1014.95 1014.57 1014.37 1014.20 1014.23 1014.75 1015.09 1015.38 1015.70 1015.91 1016.08
1020.23 1020.17 1020.16 1020.08 1020.02 1019.98 1019.88 1019.93 1019.77 1019.68 1019.76 1019.66 1019.85 1019.61 1019.36 1019.17 1019.07 1018.96 1018.78 1018.81 1018.57 1017.69 1017.61 1016.60 1016.06 1015.69 1014.96 1014.48 1014.11 1013.89 1013.85 1013.91 1014.17 1014.45 1014.80 1015.17 1015.36 1015.72
1020.01 1019.97 1019.97 1019.74 1019.74 1019.80 1019.70 1019.51 1019.22 1018.92 1018.65 1018.73 1018.80 1018.44 1018.21 1017.90 1018.20 1018.05 1018.05 1018.03 1017.73 1017.26 1017.37 1016.89 1015.69 1015.29 1014.60 1014.14 1013.69 1013.60 1013.57 1013.57 1013.80 1014.03 1014.19 1014.53 1014.85 1015.16
1019.98 1019.98 1019.90 1019.75 1019.69 1019.77 1019.81 1019.56 1019.13 1018.62 1018.05 1018.16 1017.96 1017.79 1017.63 1017.56 1017.58 1017.91 1017.90 1018.02 1017.37 1016.75 1016.66 1016.62 1015.43 1015.31 1014.64 1013.86 1013.28 1013.33 1013.24 1013.30 1013.51 1013.72 1013.88 1014.11 1014.41 1014.78
1020.33 1020.23 1020.26 1020.25 1020.20 1019.95 1019.99 1019.83 1019.32 1018.82 1018.33 1017.88 1017.60 1017.10 1017.31 1017.05 1017.04 1017.34 1017.15 1017.26 1016.99 1016.41 1015.35 1016.07 1015.43 1015.47 1014.96 1013.75 1013.32 1012.92 1012.98 1013.08 1013.22 1013.31 1013.55 1013.74 1014.00 1014.39
1020.76 1020.86 1020.49 1020.80 1020.63 1020.13 1019.79 1019.88 1019.52 1019.01 1018.50 1018.07 1017.61 1017.09 1016.51 1016.23 1015.97 1016.04 1016.08 1016.32 1016.11 1015.67 1014.47 1014.95 1014.89 1015.02 1014.94 1014.25 1013.40 1012.86 1012.71 1012.64 1012.88 1012.91 1013.02 1013.27 1013.48 1013.68
1021.29 1021.00 1020.78 1020.53 1020.40 1019.88 1019.59 1019.16 1018.97 1018.80 1018.41 1017.85 1017.31 1016.70 1016.30 1015.70 1015.22 1014.85 1014.70 1014.77 1014.60 1014.39 1013.62 1014.10 1014.18 1014.15 1014.07 1013.84 1013.32 1012.54 1012.35 1012.19 1012.28 1012.29 1012.28 1012.38 1012.80 1013.11
1021.72 1021.28 1020.62 1020.49 1020.12 1019.72 1019.39 1019.09 1018.65 1018.32 1018.04 1017.53 1016.77 1016.07 1015.74 1015.21 1014.69 1014.41 1013.93 1013.79 1013.68 1013.38 1013.20 1013.16 1013.33 1013.14 1013.18 1012.84 1012.44 1012.22 1012.20 1011.54 1011.50 1011.49 1011.53 1011.77 1011.81 1012.25
1021.66 1021.10 1020.62 1020.35 1020.00 1019.64 1019.22 1018.88 1018.58 1018.12 1017.76 1017.11 1016.47 1015.72 1015.10 1014.70 1014.40 1014.30 1014.00 1013.69 1013.53 1012.76 1012.38 1012.25 1012.14 1012.52 1012.38 1012.10 1011.94 1011.55 1011.55 1011.66 1010.81 1010.74 1010.78 1010.92 1010.98 1011.17
1022.14 1021.36 1021.04 1020.50 1020.19 1019.57 1019.17 1018.87 1018.44 1017.97 1017.49 1016.86 1016.25 1015.63 1015.04 1014.46 1014.03 1013.76 1013.59 1013.29 1013.25 1012.68 1012.05 1011.84 1011.58 1011.46 1011.44 1011.37 1011.26 1011.00 1010.68 1010.42 1010.04 1010.04 1010.46 1010.25 1010.04 1010.03
1022.33 1022.18 1021.67 1021.22 1020.83 1020.29 1019.65 1019.00 1018.48 1018.04 1017.51 1016.85 1016.15 1015.55 1014.92 1014.44 1013.85 1013.34 1013.09 1012.91 1012.67 1012.20 1011.74 1011.37 1011.30 1011.33 1011.06 1010.30 1010.06 1009.93 1009.75 1009.42 1009.08 1009.03 1009.27 1009.58 1009.19 1008.85
1022.85 1022.51 1022.07 1021.58 1021.02 1020.41 1019.92 1019.32 1018.77 1018.04 1017.39 1016.78 1016.07 1015.41 1014.85 1014.28 1013.98 1013.42 1012.90 1012.54 1012.25 1011.92 1011.57 1011.34 1011.20 1011.26 1010.78 1010.01 1008.87 1008.37 1008.57 1008.43 1008.26 1008.41 1008.25 1008.45 1008.16 1007.72
1023.14 1022.86 1022.38 1021.82 1021.21 1020.58 1019.98 1019.52 1018.92 1018.25 1017.70 1017.29 1016.74 1016.17 1015.77 1015.39 1014.57 1013.79 1013.16 1012.81 1012.36 1011.80 1011.31 1011.00 1010.80 1010.65 1010.23 1009.36 1008.60 1007.95 1007.68 1007.39 1007.69 1007.67 1007.58 1007.34 1007.29 1007.35
1023.77 1023.34 1022.87 1022.21 1021.56 1020.99 1020.49 1020.00 1019.66 1018.79 1018.15 1017.62 1017.13 1016.86 1016.59 1016.32 1015.66 1015.15 1014.55 1013.76 1012.88 1012.04 1011.11 1010.31 1009.73 1009.61 1009.12 1008.78 1008.13 1007.31 1006.84 1006.30 1005.70 1006.32 1006.47 1006.65 1006.91 1006.99
1023.67 1023.35 1022.98 1022.58 1022.06 1021.53 1021.00 1020.35 1019.44 1018.61 1018.12 1017.67 1017.21 1016.77 1016.54 1016.38 1016.01 1015.61 1015.06 1014.37 1013.45 1012.56 1011.29 1009.95 1009.03 1008.71 1008.48 1008.04 1007.17 1006.56 1005.90 1005.52 1005.09 1005.42 1005.96 1005.61 1005.68 1005.85
1024.38 1023.81 1023.15 1022.49 1021.93 1021.41 1021.01 1020.48 1019.70 1018.87 1018.07 1017.48 1017.18 1016.82 1016.52 1016.28 1015.85 1015.32 1014.80 1014.31 1013.64 1012.86 1011.90 1010.36 1008.98 1007.86 1007.28 1006.92 1006.49 1005.81 1005.07 1004.77 1004.74 1005.22 1005.32 1005.18 1005.06 1004.88
Thickness
5763 5764 5764 5766 5767 5768 5767 5767 5761 5754 5760 5776 5778 5784 5785 5788 5791 5794 5796 5800 5802 5802 5802 5804 5805 5802 5799 5796 5792 5789 5787 5784 5780 5779 5776 5773 5772 5767
5763 5763 5764 5765 5767 5768 5768 5768 5768 5762 5757 5769 5776 5781 5784 5786 5791 5794 5797 5800 5801 5803 5803 5803 5804 5802 5800 5799 5796 5793 5790 5786 5783 5782 5780 5776 5778 5771
5763 5763 5764 5765 5765 5767 5768 5769 5768 5767 5761 5769 5773 5779 5782 5786 5791 5793 5795 5798 5800 5800 5800 5800 5800 5799 5799 5799 5798 5796 5793 5789 5786 5785 5782 5778 5779 5777
5765 5764 5763 5765 5765 5767 5768 5768 5768 5769 5768 5765 5771 5775 5779 5788 5788 5790 5794 5795 5797 5799 5800 5799 5798 5798 5798 5799 5799 5799 5796 5792 5789 5788 5783 5781 5779 5780
5766 5766 5767 5765 5765 5767 5768 5768 5769 5770 5770 5768 5767 5774 5779 5784 5787 5789 5792 5793 5795 5797 5799 5799 5799 5800 5799 5800 5802 5802 5799 5797 5794 5790 5786 5784 5782 5782
5766 5767 5768 5768 5767 5768 5770 5771 5771 5769 5769 5768 5768 5772 5776 5781 5782 5782 5784 5789 5791 5796 5798 5799 5799 5801 5802 5803 5803 5804 5804 5802 5798 5793 5789 5788 5784 5784
5768 5768 5769 5770 5772 5772 5771 5773 5772 5770 5770 5768 5768 5770 5774 5776 5777 5783 5781 5785 5788 5794 5794 5796 5798 5802 5805 5805 5806 5806 5806 5806 5801 5797 5793 5790 5788 5786
5766 5770 5770 5771 5771 5773 5773 5774 5775 5772 5770 5768 5769 5769 5775 5777 5782 5781 5781 5778 5774 5791 5792 5795 5800 5802 5805 5808 5808 5809 5810 5810 5805 5801 5797 5793 5790 5787
5766 5767 5768 5772 5774 5775 5776 5777 5778 5778 5777 5778 5773 5774 5776 5779 5781 5780 5781 5778 5777 5785 5788 5792 5800 5799 5806 5809 5811 5812 5812 5811 5808 5804 5800 5796 5792 5788
5764 5765 5766 5769 5771 5771 5773 5775 5777 5779 5778 5778 5779 5782 5784 5785 5783 5784 5783 5782 5784 5786 5784 5783 5797 5800 5805 5808 5811 5812 5811 5810 5808 5805 5802 5798 5795 5791
5758 5761 5764 5766 5767 5766 5767 5768 5771 5774 5776 5778 5782 5783 5784 5783 5782 5780 5777 5775 5780 5785 5785 5784 5794 5795 5800 5804 5810 5809 5809 5808 5806 5803 5801 5798 5794 5791
5748 5750 5752 5755 5756 5756 5759 5760 5762 5765 5769 5773 5777 5782 5782 5782 5781 5778 5780 5775 5776 5778 5787 5784 5788 5788 5787 5800 5804 5806 5804 5804 5803 5802 5799 5796 5793 5789
5738 5738 5742 5743 5745 5748 5751 5751 5755 5759 5762 5765 5769 5773 5778 5781 5781 5781 5780 5778 5777 5780 5790 5788 5788 5784 5785 5791 5796 5799 5801 5802 5800 5799 5799 5795 5792 5790
5726 5730 5733 5735 5737 5742 5744 5748 5748 5748 5754 5758 5761 5766 5769 5774 5778 5781 5781 5781 5782 5785 5790 5786 5786 5784 5783 5786 5789 5797 5797 5799 5798 5797 5795 5795 5792 5788
5712 5718 5724 5725 5730 5734 5736 5738 5741 5744 5747 5751 5756 5762 5764 5770 5773 5775 5777 5778 5778 5783 5784 5781 5782 5786 5784 5787 5791 5794 5791 5797 5798 5797 5795 5793 5791 5787
5700 5706 5713 5716 5720 5723 5726 5729 5732 5735 5737 5742 5749 5757 5762 5763 5765 5764 5767 5768 5769 5778 5780 5778 5778 5776 5778 5781 5783 5788 5788 5784 5792 5792 5793 5792 5789 5786
5683 5692 5695 5702 5706 5712 5715 5717 5719 5722 5727 5732 5738 5744 5749 5753 5757 5758 5759 5761 5759 5766 5772 5774 5772 5770 5774 5775 5774 5779 5781 5784 5787 5787 5784 5788 5787 5785
5671 5672 5677 5680 5683 5689 5695 5701 5704 5708 5712 5718 5724 5729 5735 5740 5746 5751 5752 5752 5753 5758 5762 5766 5764 5760 5762 5772 5774 5774 5775 5778 5782 5782 5781 5781 5784 5782
5651 5654 5658 5662 5667 5673 5678 5685 5690 5694 5699 5703 5710 5716 5722 5729 5731 5737 5742 5745 5748 5750 5753 5754 5752 5747 5747 5752 5773 5772 5772 5775 5776 5773 5776 5778 5781 5780
5629 5633 5638 5642 5648 5654 5659 5664 5669 5675 5681 5684 5689 5694 5698 5701 5710 5718 5726 5728 5732 5737 5742 5743 5743 5739 5740 5747 5758 5769 5765 5768 5762 5764 5767 5772 5776 5773
5605 5609 5613 5619 5625 5630 5634 5638 5641 5651 5657 5662 5667 5670 5672 5675 5683 5688 5694 5702 5711 5720 5729 5737 5740 5737 5740 5743 5749 5758 5762 5758 5763 5760 5762 5761 5762 5763
5586 5589 5592 5595 5599 5604 5609 5614 5622 5630 5635 5641 5645 5650 5652 5653 5660 5665 5670 5678 5688 5698 5710 5726 5734 5732 5731 5733 5740 5745 5751 5752 5752 5752 5749 5756 5756 5755
5556 5562 5568 5572 5576 5580 5583 5587 5595 5604 5612 5618 5622 5626 5630 5633 5636 5645 5652 5658 5666 5674 5684 5700 5715 5723 5728 5730 5732 5739 5744 5746 5747 5743 5744 5742 5744 5749